Regional Weather Roundup
Issued by NWS

Home | Current Version | Previous Version | Graphics & Text | Print | Product List | Glossary On
Versions: 1 2 3 4 5 6 7 8 9 10 11 12 13 14 15 16 17 18 19 20 21 22 23 24 25 26 27 28 29 30 31 32 33 34 35 36 37 38 39 40 41 42
000
ASUS45 KCYS 270510
RWRWY

WYOMING REGIONAL WEATHER ROUNDUP
NATIONAL WEATHER SERVICE CHEYENNE WY
1000 PM MST FRI DEC 26 2014

NOTE:  "FAIR" INDICATES FEW OR NO CLOUDS BELOW 12,000 FEET
WITH NO SIGNIFICANT WEATHER AND/OR OBSTRUCTIONS TO VISIBILITY.

WYZ001-270600-
YELLOWSTONE NATIONAL PARK

CITY           SKY/WX    TMP DP  RH WIND       PRES   REMARKS
LK YELLOWSTONE   N/A      5   1  83 W5        30.02R WCI  -4
W YELLOWSTONE  NOT AVBL

$$
WYZ002>013-054>058-071-098>099-270600-
NORTHERN WYOMING

CITY           SKY/WX    TMP DP  RH WIND       PRES   REMARKS
JACKSON        MOCLDY    10  10 100 CALM      30.06R
CODY           CLOUDY    12   9  85 CALM      30.08R
GREYBULL       CLOUDY     8   6  92 SW3       30.16R
WORLAND        CLOUDY     5   3  91 CALM      30.14R FOG
SHERIDAN       FAIR      18  12  77 CALM      30.11R
BUFFALO        CLOUDY    18  13  80 NW9       30.06R WCI   7
GILLETTE       CLOUDY    13   9  84 W9        30.06S WCI   1
HULETT           N/A    N/A N/A N/A MISG        N/A
NEWCASTLE      FAIR       9   5  85 N6        30.09R WCI  -1

$$
WYZ014>020-022>026-101>103-270600-
CENTRAL WYOMING

CITY           SKY/WX    TMP DP  RH WIND       PRES   REMARKS
BIG PINEY      FLURRIES   7   3  84 NE3       30.03R
PINEDALE       LGT SNOW   5   3  92 NW5       30.03S WCI  -4
DUBOIS         NOT AVBL
LANDER         CLOUDY    13   8  81 SE3       30.06R
RIVERTON       CLOUDY    11   7  84 CALM      30.08R
CASPER         FAIR       9   5  84 W8        30.08R WCI  -3
DOUGLAS        CLOUDY    11   8  88 NW9       30.08R WCI  -2

$$
WYZ021-027>030-104>119-270600-
SOUTHERN WYOMING

CITY           SKY/WX    TMP DP  RH WIND       PRES   REMARKS
EVANSTON       FAIR       5   0  79 SW7       30.06R WCI  -7
FORT BRIDGER   CLOUDY    13   9  86 W12       30.07R WCI  -1
ROCK SPRINGS   LGT SNOW  11   9  92 S3        30.05R FOG
DIXON          LGT SNOW   7   3  86 CALM      30.05R
RAWLINS        CLOUDY     3   0  87 W5        30.02R WCI  -6
SARATOGA       CLOUDY     5   3  92 W6        30.01R WCI  -6
LARAMIE        FLURRIES   2  -1  88 S5        29.96R WCI  -8
CHEYENNE       LGT SNOW   8   5  87 W6        30.00R FOG     WCI  -2
TORRINGTON     CLOUDY    16  14  92 W3        30.09S
PINE BLUFFS    LGT SNOW  14  10  85 W5        30.06R WCI   6

$$


USA.gov is the U.S. government's official web portal to all federal, state and local government web resources and services.